Theta_e
362 363 364 364 364 364 366 365 364 367 368 365 363 360 353 351 345 343 343 348 345 348 346 345 353 360 366 369 369 371 371 364 363 369 371 371 373 359 347 345 343 343 344 344 345 346 347 347 348 349 348 346 346 348 349 350 350 350 349 347 346 345 344 342 341 341 342 342 341 342 342 343 344 345
365 363 363 363 361 365 364 363 362 366 368 364 362 361 359 356 349 349 345 347 352 348 351 351 351 362 366 364 365 366 370 359 363 370 372 370 370 349 345 345 345 344 343 342 341 343 344 345 344 342 340 340 343 346 348 348 347 346 343 343 341 341 341 339 339 339 339 339 339 339 339 340 341 340
364 365 363 366 363 365 363 364 362 365 366 364 363 362 363 359 355 354 351 347 354 352 351 355 358 358 364 363 364 366 369 365 363 369 372 373 359 350 361 351 348 345 343 341 340 339 339 339 337 337 338 340 342 345 345 343 343 341 339 339 338 337 338 336 335 336 336 337 337 336 337 338 338 339
364 365 364 366 365 365 365 364 363 364 366 365 362 363 363 363 360 357 354 351 351 359 355 356 359 360 362 366 367 367 367 372 357 372 372 374 361 371 369 358 353 348 344 341 339 337 335 334 335 337 339 341 343 344 341 340 339 336 336 335 333 332 332 332 332 333 334 334 334 334 335 336 337 337
365 366 364 364 366 367 365 363 363 361 363 366 363 364 363 360 361 357 356 352 353 359 364 359 358 361 364 360 368 366 363 365 368 364 371 374 371 369 369 370 357 352 344 340 338 336 335 334 334 335 339 339 341 341 338 335 334 332 331 330 328 328 328 328 329 331 331 330 331 332 333 334 334 335
365 366 366 364 364 368 365 362 360 360 358 358 358 361 361 359 360 362 357 355 354 354 360 362 366 364 365 360 368 367 364 364 368 367 369 370 369 369 369 368 367 351 346 340 336 335 335 334 334 334 335 335 334 334 332 330 327 327 326 325 325 326 325 325 327 329 328 328 329 330 331 332 332 333
365 364 364 363 364 364 363 363 362 360 360 359 359 359 361 361 360 362 363 358 355 354 355 362 360 361 365 363 364 367 367 369 369 369 368 364 365 369 369 368 363 352 346 342 338 336 334 334 332 331 330 331 329 328 326 324 323 323 322 322 324 324 323 323 324 325 325 325 326 328 328 329 330 331
363 363 363 362 362 364 363 363 363 363 363 362 362 362 363 365 362 364 365 363 359 357 355 360 361 362 362 363 366 367 368 367 367 367 368 369 368 366 366 366 365 358 348 344 341 337 333 331 329 327 327 326 323 323 322 322 322 321 320 320 321 321 321 321 321 323 322 322 323 324 324 326 327 327
364 364 362 362 364 366 363 363 363 363 364 363 362 361 363 364 363 364 364 364 363 360 357 358 363 367 365 365 368 369 364 364 366 370 371 367 366 369 366 365 363 353 346 346 342 337 334 331 328 327 327 325 324 322 322 321 320 319 318 318 319 320 320 320 319 321 320 320 321 320 321 323 324 324
365 363 363 363 364 364 362 361 362 365 365 365 362 362 362 363 364 364 365 365 364 363 360 361 359 364 362 363 365 368 366 362 360 363 366 370 369 369 366 364 363 364 363 363 363 340 335 328 326 327 327 325 323 323 323 322 321 318 317 314 315 318 317 317 319 319 318 318 319 319 319 320 321 324
363 363 362 363 363 363 363 362 361 363 365 364 363 364 365 364 364 363 363 364 363 361 360 359 360 361 363 364 359 365 368 365 363 361 360 361 368 370 368 366 366 365 362 357 349 349 347 340 337 321 322 323 323 324 324 323 321 321 317 315 316 317 316 316 317 318 317 317 317 316 315 316 320 322
360 361 361 359 361 363 365 364 364 365 363 365 364 363 365 365 364 360 360 362 360 359 358 357 355 357 360 363 365 366 366 363 364 367 362 358 360 364 370 369 364 367 367 363 362 345 339 334 328 322 325 327 326 325 326 327 327 322 318 318 320 320 317 316 317 317 316 315 314 315 315 315 318 319
361 360 360 359 359 363 365 363 362 362 363 363 363 365 366 365 363 363 361 361 360 360 358 357 359 359 359 360 361 359 360 359 357 362 364 361 363 365 364 368 372 367 362 363 362 363 366 363 360 358 353 344 336 331 329 331 329 323 319 319 320 320 319 317 317 317 316 315 315 314 314 315 317 318
358 358 358 357 362 360 360 357 353 348 349 353 358 362 367 366 364 362 361 360 359 359 356 355 356 354 354 355 359 360 360 363 365 364 365 362 362 364 364 365 368 368 363 361 363 364 367 362 362 359 353 346 347 346 342 333 329 325 321 320 320 319 319 317 317 316 316 315 315 315 314 314 316 316
355 356 359 359 361 363 360 360 349 347 345 345 345 347 354 362 365 363 360 359 360 358 357 356 357 355 356 357 359 360 359 361 362 362 363 361 361 360 357 355 363 366 365 365 363 364 367 367 362 360 353 346 346 342 335 328 325 321 321 320 320 319 318 318 319 318 316 315 314 315 314 315 316 316
356 355 355 357 358 361 364 364 365 357 347 342 343 343 344 347 350 353 361 361 360 360 358 357 357 356 356 358 362 359 358 361 362 365 364 363 361 360 358 358 357 368 366 362 361 359 368 368 363 359 352 348 346 335 327 323 323 321 320 320 319 319 318 318 319 318 317 316 316 316 316 316 317 315
356 357 357 356 358 357 361 362 362 366 367 348 341 342 343 344 342 339 339 345 361 362 361 359 359 359 360 360 362 363 363 366 362 362 360 363 363 362 359 359 358 365 370 363 360 357 362 366 362 358 352 349 344 331 327 322 322 319 320 319 319 318 318 317 318 317 316 315 314 314 313 312 313 314
355 358 359 358 357 359 362 364 362 364 365 367 365 360 359 360 358 346 338 336 338 348 359 361 360 364 367 363 365 368 369 364 360 359 358 362 361 362 361 365 364 367 366 360 359 356 359 364 361 358 353 350 346 344 327 320 320 320 318 319 317 317 316 316 317 316 316 315 314 313 311 310 310 311
356 358 360 360 357 359 362 363 363 363 364 366 365 365 364 364 364 365 363 359 358 357 357 360 362 365 367 368 369 369 370 367 366 364 364 363 363 363 364 363 364 363 366 365 361 353 356 363 360 359 354 349 348 343 323 321 320 319 318 318 318 316 315 316 316 315 315 315 313 312 311 310 309 309
359 359 359 360 359 359 361 359 346 353 363 364 363 363 364 364 365 364 362 349 352 363 363 364 362 362 364 353 368 367 365 365 368 367 364 364 361 359 358 357 357 357 365 367 363 358 356 363 357 357 355 351 349 346 342 321 320 319 318 319 317 315 314 314 314 314 314 314 313 312 310 308 307 308
359 359 360 361 359 359 361 352 335 336 350 360 361 361 361 362 361 361 364 346 337 337 334 334 335 334 334 332 330 328 330 350 357 361 357 356 358 357 354 355 355 356 360 362 364 359 354 359 360 358 355 352 350 347 345 338 320 317 317 317 316 314 314 314 313 313 314 313 312 312 311 309 308 310
359 360 358 361 361 360 360 342 331 331 346 359 359 360 360 359 359 360 362 364 361 333 329 329 330 331 331 331 330 330 329 328 339 356 353 356 357 356 356 352 354 356 360 359 363 358 353 358 360 357 358 350 349 347 347 342 332 320 317 314 315 314 314 314 312 314 313 313 312 312 309 309 310 330
357 359 358 356 354 357 353 335 329 327 343 358 359 360 360 357 357 359 364 364 364 365 361 358 355 352 344 348 352 354 337 335 340 352 356 357 355 354 354 354 356 353 354 362 368 357 357 357 357 357 354 350 350 349 347 341 342 340 339 336 333 314 317 317 314 314 312 311 311 312 309 308 313 331
357 358 360 354 334 331 331 329 325 323 326 355 360 360 358 358 357 361 363 366 366 366 363 364 364 364 365 365 365 365 363 357 352 352 356 358 358 357 357 357 357 353 354 364 364 360 358 359 355 357 354 349 347 344 345 345 344 342 337 336 334 323 322 321 318 313 313 312 310 311 310 308 311 326
354 356 358 359 341 325 324 323 321 319 318 332 359 361 360 360 361 357 363 365 363 363 363 362 362 361 362 363 362 361 363 361 361 356 355 358 359 360 358 357 356 356 358 363 352 364 357 357 356 353 348 345 344 341 343 343 346 341 338 334 334 333 333 331 328 332 317 308 308 310 309 309 310 316
354 355 357 361 346 325 322 320 319 316 317 319 350 360 336 335 334 360 362 364 364 362 361 359 358 359 360 359 360 359 360 359 360 363 362 359 360 363 363 361 358 356 357 375 340 364 360 356 356 352 346 340 339 336 337 341 342 342 336 334 334 334 332 330 329 329 331 331 331 320 318 311 312 311
355 358 359 360 346 325 318 317 316 316 316 320 337 328 327 327 329 341 356 358 359 359 359 359 358 358 359 358 358 358 360 361 365 364 365 365 365 365 365 365 365 363 365 369 361 365 362 358 358 355 347 340 340 336 337 340 337 337 334 332 333 334 332 330 327 327 328 328 329 315 309 309 312 313
356 357 359 355 333 321 314 313 315 316 317 334 322 319 322 325 331 349 353 353 356 356 355 355 356 358 359 359 359 359 362 362 367 368 368 368 369 369 366 367 366 366 367 366 365 363 362 359 356 356 355 345 344 344 344 340 336 336 332 333 332 333 332 328 327 327 328 329 328 328 327 326 327 327
356 341 331 329 324 321 315 313 315 317 316 315 319 318 319 330 345 349 351 353 356 354 355 354 356 357 359 360 361 364 366 367 367 366 365 367 368 367 367 368 367 366 363 363 364 363 361 360 358 357 354 353 349 349 344 338 336 334 330 330 330 332 331 330 329 326 326 327 326 325 324 325 324 325
334 330 325 323 322 322 325 337 343 346 346 322 317 320 326 341 346 349 351 353 352 354 354 355 355 357 360 360 364 366 366 363 361 362 362 363 362 363 363 361 359 361 362 362 361 361 359 358 359 354 349 349 348 347 342 336 334 333 329 327 330 329 329 329 327 328 326 326 325 325 327 328 325 324
345 344 339 344 334 335 332 333 336 338 342 343 335 335 338 344 348 351 353 354 355 354 355 355 357 358 361 363 362 362 360 358 359 361 359 359 359 360 361 359 357 357 355 353 354 355 356 356 357 355 350 348 345 345 343 338 335 333 330 331 329 326 331 330 329 328 326 326 327 327 327 327 326 325
348 351 341 339 350 351 351 348 349 350 353 352 350 349 347 347 351 351 350 353 358 359 360 359 359 358 360 358 358 357 356 357 358 360 358 357 356 353 351 343 344 348 348 345 344 347 349 356 356 355 354 349 343 342 339 336 334 334 332 332 331 330 330 328 328 330 329 328 327 326 325 325 324 326
349 351 352 352 351 351 349 349 351 352 353 353 355 356 356 354 354 354 353 353 353 356 356 356 357 356 358 358 358 356 355 355 356 362 359 357 352 352 349 344 344 346 342 343 343 345 346 348 351 353 353 351 348 344 336 332 333 334 332 333 331 330 330 329 328 330 331 331 329 327 327 326 327 325
348 349 349 351 351 350 350 350 350 351 352 354 354 356 345 354 355 354 353 354 354 357 355 356 354 355 355 356 356 354 352 355 357 352 342 348 348 346 345 343 344 346 344 344 345 345 343 343 342 341 341 338 337 343 340 335 334 334 333 333 332 331 331 332 330 333 331 329 326 325 326 326 326 327
343 348 348 348 349 350 352 350 352 352 352 352 354 355 355 355 354 351 355 355 353 353 353 354 355 355 355 354 355 353 352 353 352 350 347 347 346 345 346 345 342 341 343 344 346 347 341 338 337 336 334 334 334 336 335 340 335 335 336 333 333 332 333 331 331 332 331 329 327 325 325 326 326 327
343 346 349 349 350 351 350 350 351 352 353 354 355 356 355 355 355 354 355 356 358 356 355 354 353 355 351 352 353 353 350 346 348 347 346 346 344 345 346 344 342 343 344 345 347 347 341 336 334 333 332 331 328 328 334 332 333 337 333 332 333 334 335 334 332 332 328 327 329 326 322 322 325 328
347 348 349 350 352 351 350 353 352 353 353 354 355 356 356 356 357 358 361 361 359 356 356 354 352 351 351 350 351 347 346 346 345 346 346 348 346 343 342 341 342 343 343 345 349 345 341 338 337 335 334 331 330 331 335 335 323 324 339 333 336 335 336 335 331 330 329 329 330 326 324 325 325 328
348 350 350 349 352 353 352 352 352 352 354 354 356 357 358 359 361 365 366 360 354 351 351 350 350 349 351 348 348 348 348 347 346 345 346 349 347 343 342 342 341 342 344 346 345 342 341 338 334 335 333 334 334 333 334 335 334 328 321 335 333 336 335 333 328 326 332 330 326 328 328 325 326 330
349 350 350 351 351 353 353 353 353 353 355 356 355 357 359 360 360 363 361 356 354 351 349 348 348 348 347 349 346 347 347 346 346 345 346 347 347 347 345 343 342 343 344 341 340 338 335 335 335 334 334 336 335 336 338 336 334 340 329 316 332 336 333 332 327 327 327 328 329 331 330 332 328 317
346 349 352 352 353 354 353 356 355 355 355 356 357 358 357 356 358 360 358 353 352 352 351 349 348 343 347 347 347 347 346 347 348 348 348 348 347 348 347 345 343 345 341 336 333 334 334 335 338 340 341 341 345 344 342 339 337 337 338 325 311 328 337 333 330 329 328 327 330 327 326 331 329 333
345 347 350 352 354 354 353 354 356 357 357 357 359 350 359 360 360 359 358 355 352 352 350 351 349 348 348 349 349 347 346 346 347 348 348 348 346 345 343 338 342 341 338 337 337 337 337 339 342 333 341 344 341 340 337 334 332 333 331 334 312 309 310 315 337 334 330 335 331 326 324 325 326 328
347 348 351 353 353 355 355 355 356 357 358 357 359 359 360 360 360 347 354 350 355 355 354 351 350 348 348 350 350 346 347 347 347 347 348 349 346 338 334 336 338 336 335 333 335 338 344 344 341 339 340 340 336 334 332 331 331 332 334 336 336 315 311 309 307 310 335 336 330 327 326 327 328 326
349 350 351 352 354 356 357 356 358 358 357 359 358 359 358 357 357 355 355 354 353 352 352 351 352 352 352 351 351 351 349 347 348 349 347 343 341 342 338 337 338 338 337 337 338 340 343 343 341 338 338 337 335 332 329 330 331 332 335 334 333 334 332 314 310 310 311 310 311 321 331 330 325 322
355 351 352 354 354 355 356 357 358 358 358 359 358 359 356 356 355 356 355 354 352 351 351 350 351 351 351 351 352 352 350 350 349 346 341 338 343 347 343 340 337 338 339 338 338 338 340 339 339 337 334 331 332 330 329 331 331 331 333 333 334 334 332 332 330 316 313 313 313 311 310 310 313 314
355 354 354 355 354 355 357 356 358 359 358 356 355 354 354 354 352 355 356 354 352 352 350 349 349 351 353 352 351 348 347 338 342 345 344 341 341 341 341 339 337 337 338 338 337 337 336 335 336 335 334 334 334 332 331 330 332 331 332 332 332 332 331 331 329 329 329 331 321 311 311 312 313 313
Wind_Speed
4 4 5 4 3 3 2 3 3 2 2 2 2 2 3 2 3 5 6 4 5 3 5 4 1 2 4 5 5 4 4 3 4 5 5 5 5 5 7 9 9 9 9 9 9 9 10 10 9 8 9 8 8 8 8 7 7 8 8 8 9 10 10 11 11 11 11 12 12 12 13 14 15 15
4 4 4 4 4 3 3 4 3 2 2 2 3 3 2 3 4 4 5 6 4 4 3 3 3 3 5 5 5 4 4 3 5 5 5 6 6 7 11 10 9 8 8 8 9 9 9 8 8 8 8 7 7 6 6 6 6 7 8 9 10 11 11 11 11 12 12 12 13 13 14 15 15 15
4 4 5 4 4 4 4 4 4 3 3 3 3 3 2 3 4 4 4 6 2 1 6 5 5 5 5 6 6 5 4 1 3 5 6 6 7 10 8 8 7 6 7 7 8 8 8 7 7 6 6 5 4 3 5 6 7 8 9 10 11 11 11 11 12 13 13 14 14 15 15 16 16 15
4 5 5 5 4 4 3 4 4 4 3 3 4 3 3 3 4 4 4 6 7 4 5 6 6 6 6 6 5 6 6 1 6 6 6 7 7 6 6 4 4 5 5 6 7 7 6 5 5 4 3 3 4 6 7 7 9 9 9 9 9 9 10 11 12 13 13 13 14 14 14 16 17 17
5 6 6 6 5 4 5 5 5 4 4 4 4 3 3 4 3 4 4 6 8 6 3 4 6 6 6 6 4 6 7 7 6 7 6 6 6 6 6 6 4 3 6 6 6 5 3 2 2 3 4 5 6 8 9 9 8 8 7 7 7 8 9 10 11 12 12 13 14 14 14 15 17 18
5 6 6 7 6 5 6 6 7 6 6 5 5 4 4 4 4 4 5 6 7 8 5 5 4 5 3 6 4 5 7 8 7 7 6 5 5 5 6 6 5 5 6 6 6 5 4 4 5 6 7 8 9 8 8 7 7 6 6 6 7 8 8 8 10 12 13 14 14 15 15 16 17 18
7 7 7 8 7 5 6 6 7 7 6 6 5 6 5 5 6 5 5 5 7 8 8 5 6 4 4 5 6 6 5 6 5 6 6 6 5 4 5 6 6 5 6 4 5 5 5 6 7 9 9 10 9 8 7 6 5 6 6 7 7 7 8 9 11 13 13 14 15 15 15 16 16 17
8 8 8 8 7 6 7 7 6 6 6 5 5 6 5 5 5 5 5 6 6 7 8 6 6 6 6 6 5 5 5 6 5 5 6 5 5 5 5 5 5 4 6 3 6 6 6 7 9 10 10 9 9 7 5 5 6 7 7 7 7 8 9 10 10 12 12 13 15 16 16 16 16 16
8 8 9 8 7 7 7 7 7 6 7 6 6 6 5 5 5 4 4 5 5 6 8 8 6 5 6 6 5 4 5 6 6 5 5 5 5 5 5 5 5 4 7 6 9 8 8 9 9 9 9 9 8 6 5 5 7 7 7 8 8 9 9 10 11 12 13 12 14 15 16 15 15 15
9 9 9 9 8 8 8 8 7 6 7 6 6 7 6 5 4 5 5 5 6 6 7 8 8 6 6 6 5 4 3 6 7 6 5 5 4 4 5 5 5 5 5 4 3 10 10 10 9 8 9 8 7 6 5 7 7 8 8 8 8 9 9 10 11 12 13 13 14 16 15 14 13 14
9 10 10 9 9 9 9 9 9 7 7 6 7 6 6 5 5 5 5 5 6 6 7 7 8 7 6 5 6 3 2 5 6 6 6 5 3 3 3 5 5 4 4 2 6 6 6 9 6 7 8 7 6 6 6 7 8 7 7 8 8 9 10 10 11 12 13 13 14 14 13 13 13 14
10 10 10 11 10 10 10 9 9 8 7 6 6 6 5 5 5 6 5 5 6 6 7 7 7 7 6 5 6 5 4 5 4 4 4 7 6 5 3 3 5 4 2 4 2 8 9 8 10 9 8 6 4 4 8 8 7 5 6 7 8 9 9 10 10 11 12 13 13 13 13 13 13 13
10 10 10 11 11 10 10 11 9 8 6 6 6 6 5 6 6 6 6 6 6 6 7 7 7 7 7 6 6 5 4 5 6 5 5 6 7 6 6 4 2 2 4 3 3 4 5 2 4 3 4 4 6 5 2 6 8 6 5 6 7 8 9 9 9 10 11 12 13 13 13 13 13 13
11 11 11 10 12 11 11 12 12 13 12 11 10 7 6 6 6 6 6 6 6 7 7 8 7 8 7 6 6 6 5 5 5 6 5 6 7 7 7 5 2 1 2 4 4 5 3 4 3 2 3 3 3 0 1 5 5 3 4 5 6 7 8 8 9 10 11 12 13 13 13 13 13 12
11 11 11 10 11 11 12 12 14 13 14 14 14 14 12 9 7 7 8 8 8 7 8 7 7 8 8 8 7 7 6 5 6 6 5 6 6 6 7 8 3 3 1 3 6 6 4 3 5 3 2 3 1 1 3 4 2 1 3 5 6 7 7 8 8 10 11 12 12 13 13 13 12 12
10 11 10 10 9 9 11 10 10 13 15 15 15 15 14 14 14 12 10 8 8 8 8 8 8 8 8 7 6 7 6 5 6 5 5 6 6 7 7 6 7 1 1 4 5 7 5 4 5 3 3 3 2 4 5 4 2 0 3 5 6 6 7 7 7 8 11 12 12 14 14 14 13 12
10 9 9 10 9 9 11 11 11 9 9 14 17 15 15 14 15 15 16 15 12 9 9 10 9 9 8 8 8 7 6 5 6 6 6 6 6 7 7 7 7 4 1 5 6 7 5 4 5 4 4 3 4 5 6 3 3 1 2 4 5 5 6 7 7 8 10 11 12 13 13 13 13 12
11 11 10 10 10 10 9 9 10 10 10 8 8 9 10 10 13 16 17 18 18 15 12 11 11 10 8 9 8 7 5 6 7 7 8 7 8 7 8 8 7 6 3 6 6 8 6 4 5 5 4 4 4 3 6 5 3 1 1 3 3 4 5 7 8 8 9 11 11 12 13 13 12 12
12 11 11 11 12 11 10 9 9 10 9 9 8 9 9 10 10 11 12 12 12 11 11 13 13 12 11 10 10 9 7 8 8 8 9 9 8 8 9 9 8 7 6 6 3 6 6 4 5 6 4 4 4 4 7 5 3 2 1 1 3 4 5 7 8 8 9 10 11 11 13 14 13 12
11 12 12 11 12 12 11 10 13 12 9 9 10 10 10 10 10 10 11 12 12 11 10 11 12 11 11 8 9 8 7 7 6 7 8 8 8 7 7 7 6 6 3 5 5 6 7 5 6 6 2 3 4 4 3 8 5 4 2 2 3 4 6 6 7 8 8 9 11 12 12 14 14 12
12 12 12 12 11 12 12 12 14 14 13 11 11 11 11 10 10 10 9 13 17 15 15 14 13 14 14 12 12 12 10 8 7 7 9 9 7 6 7 7 6 6 4 4 5 7 9 6 5 7 2 3 3 4 4 5 8 6 4 3 3 5 5 6 6 7 8 9 10 11 12 14 15 14
11 12 15 13 13 12 12 12 15 15 13 12 12 11 11 12 12 11 10 7 8 16 17 16 16 16 15 13 13 13 13 10 5 7 9 9 7 8 8 8 7 7 6 6 5 6 8 7 5 6 2 2 4 4 4 4 6 8 8 6 4 4 4 4 5 6 7 7 9 11 12 14 16 7
11 11 13 17 15 13 13 14 14 16 14 12 12 12 12 12 13 11 9 9 8 7 7 8 9 10 12 11 10 10 15 13 11 10 11 9 9 9 9 9 7 9 8 4 7 5 7 6 5 4 5 6 3 3 4 4 4 3 1 4 4 5 2 1 2 2 3 5 7 9 11 13 13 5
11 11 11 13 18 19 17 15 15 16 18 14 12 12 11 12 13 10 9 10 8 8 8 8 7 8 7 7 7 8 8 9 11 11 10 10 9 9 9 9 8 10 9 3 9 6 8 4 5 4 6 6 4 3 3 4 4 3 2 1 0 4 4 5 6 8 2 2 4 5 9 10 12 7
12 11 11 12 14 19 19 18 17 16 18 17 13 12 12 13 12 9 9 8 8 8 8 8 8 8 7 7 8 8 7 7 8 9 10 10 9 9 9 10 10 11 10 6 11 6 7 4 6 3 2 3 2 1 1 2 3 4 3 1 0 2 2 3 3 1 6 9 5 4 6 7 8 8
13 13 11 10 12 17 19 19 18 18 16 18 11 14 15 16 13 11 9 8 7 7 7 8 7 7 6 7 7 7 7 7 7 8 8 9 10 9 9 10 11 12 11 3 14 8 9 5 6 4 2 2 2 1 3 4 4 4 3 2 1 1 1 2 2 2 3 4 3 5 3 4 4 5
13 11 12 12 13 15 18 18 19 17 18 13 13 18 17 16 16 10 7 8 8 8 8 7 7 7 7 8 8 7 7 7 8 7 8 7 8 9 9 11 11 11 11 4 9 8 8 8 4 6 5 4 3 3 4 5 3 4 3 3 3 3 1 1 1 2 3 3 3 1 8 9 3 4
13 13 13 12 14 16 17 17 17 17 16 13 18 19 19 18 11 5 8 7 9 8 8 8 9 8 8 8 8 8 8 7 6 6 6 7 9 9 9 10 11 10 11 9 8 8 9 9 7 7 7 7 7 8 6 4 2 3 3 3 3 3 2 1 1 1 0 1 3 4 5 4 5 4
14 13 15 14 14 14 14 16 16 14 16 20 18 17 17 12 6 8 8 9 8 9 9 9 9 9 9 9 9 7 6 6 5 6 7 7 8 9 10 9 8 8 8 9 10 9 9 9 8 6 7 7 8 8 6 4 3 4 4 3 4 4 4 2 1 1 1 1 2 3 3 3 4 3
18 16 14 15 14 12 12 9 8 8 10 16 19 16 10 7 9 9 9 9 10 10 10 10 10 9 8 8 7 7 6 6 7 6 6 6 8 8 7 7 9 9 10 9 9 9 11 11 9 6 6 6 7 7 6 6 4 4 5 4 2 3 3 3 2 2 2 2 1 1 1 1 2 3
12 13 12 9 9 10 13 15 13 13 12 10 9 8 9 10 10 11 11 11 10 10 10 9 9 8 8 7 6 6 6 7 7 7 7 7 8 8 5 4 6 4 4 6 6 4 4 8 8 8 9 7 7 7 5 5 4 5 5 4 4 4 4 4 3 2 2 2 2 2 1 2 2 1
13 12 10 10 7 7 7 8 8 10 9 10 10 9 10 11 12 13 13 11 9 9 9 9 8 8 7 8 8 7 7 7 7 8 8 8 7 6 5 5 8 7 3 4 6 6 7 9 9 9 10 8 8 6 3 4 5 4 4 4 4 2 3 3 3 3 2 1 2 2 1 0 1 1
7 7 9 9 10 10 11 11 11 10 9 9 10 11 10 10 10 10 9 10 10 10 9 10 9 9 8 9 7 7 7 8 8 5 5 4 4 3 4 7 6 6 6 6 8 6 6 5 4 5 5 4 4 5 5 5 5 4 4 4 4 3 3 3 2 2 1 2 1 1 1 1 0 1
8 9 10 11 11 12 12 13 12 12 11 10 11 11 12 11 11 10 10 10 10 9 10 9 9 9 9 8 7 8 11 9 8 6 6 7 6 6 7 7 5 4 5 5 8 7 5 3 3 2 3 3 3 1 4 5 4 4 5 4 4 4 4 4 3 3 2 1 1 1 1 2 1 1
10 10 11 12 13 13 13 13 13 11 11 11 11 11 11 11 12 11 10 10 9 9 9 9 10 9 8 9 8 10 10 10 8 7 8 7 6 8 6 6 6 6 6 5 8 7 5 5 5 5 3 2 2 4 4 5 3 4 4 5 5 5 4 5 4 4 3 2 2 2 2 2 2 2
11 12 12 12 12 12 13 13 12 12 12 12 12 11 11 11 11 11 11 10 9 9 10 9 9 8 10 10 10 9 9 7 8 9 10 10 9 7 5 6 6 6 7 6 6 6 7 7 7 7 7 6 6 6 7 10 9 5 5 5 5 5 4 5 4 4 4 3 3 3 3 1 1 3
10 11 11 12 11 12 12 12 12 11 12 12 12 11 11 10 10 10 10 9 9 9 9 8 9 10 10 11 10 10 9 8 9 10 12 11 8 7 7 6 7 7 4 4 5 6 7 7 7 7 7 7 8 9 6 5 8 8 5 6 5 5 5 5 4 4 4 4 3 4 3 3 2 1
12 11 11 12 12 11 11 11 11 11 11 11 11 10 10 10 9 8 7 7 8 9 9 11 12 10 10 9 10 10 10 9 9 10 10 10 10 10 9 9 7 5 4 4 5 6 6 6 7 6 7 10 10 9 7 5 4 6 12 8 6 5 5 5 5 4 4 4 4 3 3 4 4 2
11 12 11 11 11 10 10 10 11 11 11 10 10 10 10 10 10 8 8 9 9 10 10 11 11 10 10 10 10 10 10 9 10 11 11 11 10 9 9 9 7 5 5 5 5 4 5 5 7 8 9 10 10 8 5 5 5 3 10 17 8 5 5 5 5 4 3 4 4 3 4 4 4 2
12 12 12 11 11 10 10 10 10 11 11 11 10 10 10 10 10 10 9 8 10 11 11 11 11 10 10 10 9 10 9 10 10 10 11 10 10 9 8 7 6 6 7 7 7 7 7 9 9 11 11 11 7 1 2 1 3 3 3 8 14 9 4 6 5 4 4 4 2 3 4 3 4 3
10 11 11 11 11 10 11 11 11 10 11 10 9 10 10 10 10 10 9 10 10 11 12 11 11 11 11 10 10 10 10 9 9 9 10 10 9 9 7 5 6 6 7 6 5 6 8 8 8 4 2 3 2 2 3 4 6 5 5 5 11 15 11 5 2 4 4 3 3 5 5 5 4 4
11 11 11 11 11 11 11 11 11 10 10 10 10 9 10 10 10 10 9 9 10 11 11 11 10 11 11 10 10 10 9 9 9 9 9 8 6 5 7 6 6 6 7 8 10 8 7 6 6 6 6 4 3 5 7 7 7 6 5 4 5 8 12 11 6 4 3 2 4 5 5 4 4 6
10 10 11 11 11 10 10 10 10 10 10 10 10 10 9 10 10 10 10 10 11 12 12 11 10 10 10 10 9 8 8 9 9 8 7 6 7 8 6 5 7 7 7 6 5 7 6 6 6 7 6 6 6 6 7 7 7 7 5 5 4 5 5 8 10 10 8 7 7 6 5 5 6 7
10 11 11 10 10 10 10 10 10 10 10 10 9 9 10 10 11 11 10 10 12 12 10 9 8 9 10 9 7 7 7 8 8 7 6 7 8 8 8 7 9 10 9 6 3 3 3 5 6 7 7 7 7 7 9 8 8 7 6 5 4 5 4 5 5 6 7 11 14 14 14 11 10 6
7 8 9 9 10 9 9 9 9 9 9 10 10 11 10 10 11 11 10 10 11 10 9 9 10 10 8 7 8 8 8 7 8 7 6 7 7 7 7 7 8 8 7 6 5 5 4 5 5 6 6 6 7 7 7 6 6 7 6 5 5 5 5 5 6 6 6 6 10 14 15 13 13 14
Wind_Direction
261 239 223 238 257 256 245 254 251 266 281 274 274 270 286 283 293 319 328 337 339 352 358 347 62 356 340 331 338 332 338 20 325 336 324 321 308 333 316 303 298 297 301 305 309 309 309 309 309 309 308 307 303 305 306 307 314 321 334 343 348 348 348 347 341 338 333 330 324 320 319 319 320 320
259 254 238 231 244 232 236 243 249 238 247 259 255 253 242 229 259 300 304 315 308 315 325 318 343 336 331 329 326 331 322 86 302 332 320 323 332 328 301 290 289 296 302 310 314 314 314 318 318 315 315 314 311 310 320 345 357 13 16 10 9 3 359 354 348 342 335 328 324 323 322 321 321 319
251 250 248 231 242 238 253 262 254 238 237 254 261 261 234 222 235 266 283 293 309 304 312 319 324 320 314 324 324 321 320 345 316 321 327 318 327 296 283 274 280 293 313 325 325 322 327 326 317 316 317 323 324 354 18 32 37 35 28 22 14 5 356 348 339 332 328 328 328 328 328 325 322 318
241 244 245 239 241 233 234 246 251 243 243 252 259 260 250 236 232 238 264 272 291 276 295 308 306 310 324 307 304 322 318 232 203 332 312 319 295 295 330 315 300 324 349 352 335 341 343 328 321 329 346 6 41 49 59 49 47 40 29 21 10 357 346 340 336 334 334 334 334 333 330 326 327 329
237 240 247 251 249 242 252 254 257 259 250 241 246 242 238 251 224 223 244 275 287 291 273 282 294 310 310 309 301 310 322 327 333 320 318 317 323 325 326 329 338 16 18 3 355 18 12 13 25 36 48 63 63 70 64 57 49 41 29 16 1 349 346 341 333 336 341 342 339 335 331 332 332 331
230 231 239 249 250 238 248 261 262 262 263 256 257 239 243 251 249 212 254 271 284 292 291 281 297 297 277 297 304 312 319 325 323 319 318 319 325 325 326 332 343 56 17 4 24 44 53 56 55 65 82 82 76 67 65 63 57 42 26 12 2 357 343 335 343 348 347 344 339 334 332 334 335 334
233 234 238 245 247 242 247 250 258 261 258 263 263 265 259 256 258 242 226 257 275 287 293 296 294 298 294 293 305 308 306 303 298 303 314 321 321 314 318 328 333 43 354 0 52 69 67 69 73 85 86 83 78 78 73 71 59 42 31 16 5 355 350 352 352 350 346 343 339 336 335 335 334 333
231 237 242 247 246 242 246 252 257 253 246 245 245 249 247 245 256 255 230 230 259 278 286 289 289 300 301 293 290 298 299 297 299 297 302 293 294 310 319 323 325 357 327 324 97 88 86 89 93 92 91 89 88 85 83 70 55 45 34 19 11 5 360 355 350 348 345 340 340 338 336 335 334 331
233 236 242 246 242 235 243 249 247 245 234 234 240 245 243 240 241 236 233 235 236 256 272 284 282 282 279 281 283 284 303 306 295 288 281 300 301 299 313 322 335 289 223 219 129 118 106 101 101 100 99 103 103 99 85 64 54 46 32 23 12 3 357 353 352 351 346 338 338 337 338 338 333 333
230 237 241 242 238 238 241 250 250 245 238 234 235 240 241 241 236 235 237 234 239 250 264 276 286 273 283 292 287 286 289 303 308 304 287 264 266 293 315 334 336 342 350 351 124 139 123 106 106 107 112 115 117 104 76 60 55 41 30 19 7 359 354 354 354 350 345 341 339 341 339 340 340 343
234 236 240 240 237 237 239 246 249 247 243 239 244 236 236 235 232 240 244 236 245 253 264 271 272 280 273 268 289 277 266 283 274 289 304 301 274 262 305 322 333 340 341 165 136 52 61 124 124 121 123 125 127 109 80 70 54 36 24 13 5 359 353 353 352 349 345 342 341 340 341 344 343 352
240 239 240 242 239 235 234 237 244 244 248 247 251 245 237 232 234 250 251 246 250 256 260 265 277 277 283 275 266 269 262 278 268 244 290 305 308 306 282 283 315 332 310 325 111 136 131 121 118 136 135 142 149 161 130 88 63 39 17 7 4 357 351 351 351 350 347 344 343 345 347 348 350 355
237 240 242 243 243 236 229 228 233 242 243 251 253 250 234 232 237 242 247 246 248 251 257 264 264 267 268 268 269 269 264 272 295 303 294 290 293 300 304 287 254 287 310 298 315 314 322 296 183 210 186 152 182 137 257 131 114 47 2 4 3 355 351 349 351 353 351 348 349 350 350 348 353 357
238 239 242 244 240 234 226 224 226 230 233 232 246 255 240 230 232 237 243 245 244 249 254 256 261 266 265 269 268 272 274 281 279 283 284 289 304 304 297 294 248 209 287 318 306 300 286 295 314 209 202 154 198 211 132 37 14 14 356 6 4 356 350 351 350 355 355 353 353 353 351 351 352 355
242 243 241 244 234 221 226 229 226 228 226 226 230 239 247 252 245 242 241 243 243 246 252 256 256 260 268 268 274 272 279 282 282 286 286 287 294 299 309 310 305 164 347 312 307 301 309 270 296 225 203 176 165 161 80 92 167 343 16 13 8 358 352 352 353 356 359 356 355 354 353 351 350 353
238 240 242 240 240 232 229 232 223 218 222 224 226 230 234 235 240 244 246 248 247 244 250 255 255 263 263 269 265 269 273 276 282 276 277 272 279 287 287 287 298 331 143 312 296 300 304 268 290 203 184 166 188 76 98 157 168 111 35 25 11 3 355 355 356 356 360 358 355 356 354 351 349 350
232 235 237 241 238 242 218 224 236 236 219 213 221 227 231 236 234 235 238 242 247 257 257 259 260 253 263 267 263 255 259 271 273 280 274 271 268 270 273 279 287 304 338 306 292 298 306 282 279 261 168 179 159 142 157 152 164 153 51 35 13 3 2 359 1 358 359 359 354 351 349 346 346 347
230 227 228 231 236 237 231 223 227 230 234 230 214 217 225 231 229 226 231 236 240 242 250 256 259 259 248 256 263 263 249 253 267 275 280 284 283 276 275 288 287 287 273 282 297 296 292 293 292 290 170 175 157 158 112 165 159 160 59 41 11 9 6 9 7 3 358 359 356 349 346 345 343 340
230 228 225 229 236 237 231 223 216 226 228 229 231 229 228 227 232 230 226 225 226 225 229 237 246 254 254 255 260 263 252 253 259 267 277 286 288 289 289 280 266 265 240 233 235 282 305 302 283 293 170 178 176 150 149 177 168 184 136 35 27 14 17 15 13 4 359 359 355 351 346 343 338 331
228 228 228 229 232 235 235 217 198 214 230 235 234 234 236 239 237 237 231 226 224 228 230 232 242 250 254 254 260 272 277 275 273 278 277 272 275 271 274 277 279 269 238 206 230 265 287 296 294 302 167 183 188 172 178 147 192 172 164 89 39 30 20 19 13 6 3 360 357 353 350 343 332 320
228 227 226 225 232 234 232 218 193 204 212 233 236 238 240 242 245 246 240 212 217 224 232 241 250 257 262 264 264 266 264 257 278 283 281 272 259 256 267 276 278 276 276 249 250 279 287 293 288 291 181 218 208 195 194 161 162 185 159 123 74 34 23 18 8 7 6 4 359 356 353 347 333 307
232 228 222 221 227 231 233 213 194 198 197 223 230 234 238 242 244 246 246 241 210 216 226 231 238 246 254 256 259 261 257 241 220 235 250 260 264 264 267 270 280 290 286 274 246 260 278 287 279 278 277 193 221 212 186 176 150 171 177 145 100 51 19 9 3 1 12 8 3 2 356 356 331 317
233 234 221 217 223 227 229 215 198 193 193 217 224 228 235 242 246 246 245 237 236 219 214 224 229 241 240 239 237 238 234 223 207 223 238 257 257 259 262 273 277 282 276 276 158 230 280 274 266 254 277 270 160 189 171 188 199 192 193 166 150 91 345 335 303 334 28 20 13 13 2 5 339 358
230 228 232 217 213 221 225 220 207 196 195 212 221 227 234 240 243 247 242 238 240 246 247 256 243 247 254 247 226 228 228 207 200 214 222 235 243 248 256 257 259 270 279 260 175 235 275 256 269 187 272 286 277 155 183 195 201 196 192 136 206 146 206 225 203 181 160 91 40 27 13 11 3 10
234 233 229 237 207 207 217 221 217 204 201 209 221 225 232 233 240 249 253 248 231 250 257 256 253 254 252 251 253 248 239 233 211 207 213 227 234 238 253 260 260 269 265 249 171 238 256 215 262 176 225 199 299 359 164 228 208 189 156 115 96 61 9 27 2 21 151 165 121 51 36 5 26 16
234 233 233 230 208 198 208 215 218 214 206 210 218 229 231 236 239 244 247 263 264 258 253 256 256 256 253 256 259 257 254 250 242 233 221 214 226 223 232 243 255 268 266 187 162 216 247 224 227 203 162 172 210 230 244 226 205 169 152 132 140 110 43 31 8 27 359 6 22 16 352 341 30 51
230 227 228 232 214 197 204 210 215 214 212 207 222 229 233 235 237 240 253 257 258 254 253 253 256 252 253 257 254 251 252 252 249 246 248 250 223 219 226 236 244 254 266 248 183 227 236 257 204 197 188 173 187 189 224 247 183 153 174 165 157 145 111 72 45 20 12 5 20 203 213 210 125 126
230 230 227 228 218 206 205 209 213 214 207 213 219 223 230 235 237 241 242 242 243 247 251 249 253 246 247 249 249 245 243 253 256 246 249 249 241 248 252 244 241 248 257 241 215 223 239 249 218 202 199 182 211 235 253 205 199 174 182 149 158 150 136 151 142 91 78 39 16 17 13 14 16 4
234 231 225 223 217 211 206 210 214 218 215 218 223 221 224 226 229 225 230 236 234 237 238 238 238 243 238 239 243 247 249 245 249 248 246 240 244 255 251 252 254 252 244 246 240 229 228 232 235 197 197 201 219 235 229 234 192 185 175 177 183 162 165 164 156 143 123 96 68 33 24 11 11 11
229 229 221 219 217 215 215 211 214 217 213 212 218 221 208 210 219 221 221 221 225 233 237 234 233 236 240 240 241 233 229 239 240 238 239 241 255 245 233 242 244 238 235 234 232 218 220 220 229 180 193 203 217 223 207 209 198 194 173 196 165 138 176 175 168 153 151 133 122 92 103 76 41 350
237 232 231 228 213 225 215 214 222 226 226 205 204 205 202 212 215 215 215 217 217 225 231 234 233 234 239 241 228 222 224 231 233 231 230 238 243 242 229 233 255 262 295 306 290 296 234 230 222 195 211 205 207 216 202 203 212 187 187 189 188 229 149 175 169 157 155 157 162 162 166 179 148 178
228 231 222 215 212 219 224 220 227 228 224 219 209 205 200 207 213 217 218 220 230 233 233 238 236 237 228 228 229 229 227 231 229 217 216 221 219 209 143 168 219 211 174 245 262 251 241 225 218 214 217 198 195 185 166 205 223 206 192 183 196 195 172 189 169 152 156 222 193 146 156 153 59 98
213 217 222 219 212 214 221 225 226 225 220 219 219 218 211 211 211 210 207 213 218 219 217 225 224 231 226 232 226 221 236 236 235 228 230 241 243 258 214 227 224 181 171 207 244 236 216 193 204 216 213 203 203 164 175 201 218 217 213 200 196 200 183 174 178 141 152 216 235 178 149 213 246 31
217 213 220 221 220 219 220 226 228 227 223 222 221 220 216 219 222 216 212 217 219 212 215 223 226 229 230 232 227 236 244 242 226 196 191 212 196 211 212 217 216 150 172 195 231 231 209 176 136 103 59 45 18 258 218 229 220 201 211 211 209 210 178 164 159 152 180 215 318 276 207 198 191 201
213 220 217 219 222 222 223 225 226 224 223 222 223 223 217 215 221 221 223 221 216 214 217 220 226 224 220 234 232 233 231 229 218 221 225 229 222 216 205 198 175 185 197 197 218 212 190 175 160 155 150 154 211 235 238 260 260 216 199 213 217 219 183 169 162 166 176 188 208 267 261 206 187 183
208 218 221 222 221 217 221 223 224 224 225 223 222 223 223 219 214 215 220 210 206 214 219 218 216 218 235 235 236 235 234 219 227 230 233 225 224 216 208 214 203 211 205 193 220 202 197 185 180 175 175 181 203 224 221 205 212 237 219 225 211 215 195 162 164 166 185 200 196 235 261 271 208 170
216 219 220 226 223 217 220 221 222 223 226 227 225 223 223 220 211 209 212 194 212 220 222 220 230 230 228 228 230 231 229 225 230 229 231 225 213 200 210 213 212 205 178 177 216 194 196 179 183 189 195 198 215 232 231 123 222 246 240 231 220 203 188 167 163 190 204 205 208 223 254 276 274 210
219 218 224 226 226 221 220 222 222 224 227 227 227 223 220 222 219 211 192 192 211 226 223 222 229 225 226 224 227 234 237 235 236 237 237 233 220 210 205 205 206 201 179 169 192 205 195 178 183 192 202 221 229 238 237 166 172 202 211 217 232 199 177 174 192 203 191 197 227 224 233 250 252 244
219 222 222 225 221 221 218 217 219 224 225 223 221 221 223 225 222 214 201 206 214 217 218 220 221 222 222 224 224 230 232 231 232 240 244 245 236 227 210 205 194 180 177 174 183 192 182 185 189 195 205 221 226 230 229 216 209 149 173 195 215 210 189 197 207 206 210 209 206 210 243 258 297 24
219 222 225 223 222 217 221 218 217 218 222 222 225 224 225 224 219 217 209 200 214 216 220 221 220 219 221 221 221 225 230 231 234 240 243 242 239 233 228 218 201 174 160 178 198 205 199 207 203 208 211 221 239 298 71 62 63 123 142 189 223 235 212 189 206 209 220 228 232 241 249 217 246 180
212 217 223 223 222 219 217 217 217 219 223 225 224 221 222 223 218 219 209 202 209 216 221 220 217 218 221 218 216 215 217 221 226 229 236 240 234 225 214 178 157 152 165 196 207 221 225 224 227 202 210 212 143 173 235 240 234 220 214 193 194 221 249 288 253 223 232 173 212 244 263 267 284 272
201 212 217 215 218 219 217 218 220 222 226 219 218 215 212 215 224 213 208 200 214 220 219 218 216 217 221 221 217 211 217 218 220 224 223 221 197 171 173 167 153 146 167 188 198 199 220 206 175 164 202 211 208 221 238 239 240 235 216 166 154 189 214 237 276 319 327 273 226 238 248 250 226 257
196 212 213 213 211 214 217 218 215 216 219 217 216 210 211 217 219 212 214 217 221 221 223 224 222 221 223 220 212 206 211 218 219 222 205 174 171 193 173 175 185 186 196 209 197 217 200 155 170 181 191 202 208 214 229 227 230 237 217 204 178 154 169 195 224 240 257 272 271 265 285 296 292 279
207 210 217 214 213 213 217 219 218 216 217 217 211 206 216 218 216 212 209 210 219 221 218 219 218 220 220 213 206 203 199 209 204 197 179 172 199 212 211 198 198 204 194 191 161 144 176 167 168 177 181 198 198 203 218 224 229 231 236 240 157 160 186 169 176 197 233 247 249 253 257 258 259 288
221 217 215 211 212 209 202 210 210 213 211 215 217 224 218 217 222 222 212 214 221 218 211 213 216 216 210 206 206 203 200 187 189 201 186 186 203 210 207 191 189 200 189 167 174 194 178 176 168 184 200 202 200 212 219 223 235 241 233 215 219 218 218 189 195 205 211 226 207 217 237 248 256 271